Terminal Aerodrome Forecast
Issued by NWS Burlington, VT

Home | Current Version | Previous Version | Text Only | Print | Product List | Glossary On
Versions: 1 2 3 4 5 6 7 8 9 10 11 12 13 14
000
FTUS41 KBTV 250536
TAFBTV
TAF
KBTV 250536Z 2506/2606 18010G22KT P6SM SCT250
     FM251800 20012G22KT P6SM VCSH BKN045
     FM260000 20011KT P6SM SCT045=

USA.gov is the U.S. government's official web portal to all federal, state and local government web resources and services.